Location: Feigenhofen
(48.4939°N, 10.7793°E)
Time: 05:18:30
(UTC+00:00)

ADEOS II - Pass Details

Date: 26 May 2022
Orbit: 798 x 801 km, 98.6° (Epoch: 24 June)

Event Time Altitude Azimuth Distance (km) Brightness Sun altitude
Rises 01:36:43 0° 14° (NNE) 3,319 6.7 -13.4°
Reaches altitude 10° 01:39:03 10° 14° (NNE) 2,384 5.7 -13.2°
Maximum altitude 01:44:20 88° 284° (WNW) 807 2.1 -12.7°
Enters shadow 01:48:42 15° 198° (SSW) 2,021 3.6 -12.3°
